{"data":{"norad_id":51788,"epoch":"2026-05-24T21:18:43.449696Z","epoch_age_seconds":85454,"freshness":"FRESH","line1":"1 51788U 22017W   26144.88800289  .00000897  00000+0  74424-4 0  9999","line2":"2 51788  53.2146   7.0542 0001337  93.7304 266.3841 15.08842356235428","mean_motion":15.08842356,"eccentricity":0.0001337,"inclination_deg":53.2146,"raan_deg":7.0542,"arg_perigee_deg":93.7304,"mean_anomaly_deg":266.3841,"bstar":7.4424e-5,"rev_number":23542,"period_min":95.437405655651,"perigee_km":538.81126797882,"apogee_km":540.66110726919,"semimajor_km":6917.873187624,"source":"CELESTRAK","updated_at":"2026-05-25T13:38:16.954042Z"}}